VE6HFD-WX Weather Reports


time (UTC)temp
F
wind
direction
speed
knots
gust
knots
rain 1hr
in
rain 24hr
in
rain mn
in
humidity
%
barometer
mb
20260906225837 63 79 4.3 4.3 0.00 0.01 0.01 74 1014.9
20260906225307 63 49 7.8 10.4 0.00 0.01 0.01 73 1015.0
20260906224807 64 73 5.2 7.0 0.00 0.01 0.01 72 1015.0
20260906224307 64 62 5.2 10.4 0.00 0.01 0.01 73 1014.8
20260906223737 64 49 5.2 10.4 0.00 0.01 0.01 73 1014.9
20260906223207 64 63 2.6 5.2 0.00 0.01 0.01 73 1014.8
20260906222707 64 54 1.7 2.6 0.00 0.01 0.01 74 1014.8
20260906222207 64 59 1.7 1.7 0.00 0.01 0.01 73 1014.8
20260906221637 64 49 1.7 4.3 0.00 0.01 0.01 76 1014.7
20260906221137 63 43 2.6 2.6 0.00 0.01 0.01 76 1014.7
20260906220607 63 63 0.9 1.7 0.00 0.01 0.01 76 1014.7
20260906220107 63 48 5.2 7.8 0.00 0.01 0.01 76 1014.6
20260906215537 63 66 2.6 10.4 0.00 0.01 0.01 77 1014.6
20260906215007 62 68 4.3 7.8 0.00 0.01 0.01 79 1014.7
20260906214507 61 53 4.3 4.3 0.00 0.01 0.01 80 1014.9
20260906213937 61 54 6.1 10.4 0.00 0.01 0.01 79 1015.0
20260906213407 61 52 6.1 7.8 0.00 0.01 0.01 80 1015.0
20260906212837 61 64 5.2 7.8 0.00 0.01 0.01 81 1015.0
20260906212337 60 61 6.1 7.8 0.00 0.01 0.01 81 1015.2
20260906211807 60 71 2.6 7.8 0.00 0.01 0.01 83 1015.3
20260906211237 60 71 1.7 2.6 0.00 0.01 0.01 82 1015.2
20260906210707 60 71 6.1 7.8 0.00 0.01 0.01 83 1015.2
20260906210137 60 71 6.1 10.4 0.00 0.01 0.01 83 1015.2
20260906205637 59 55 5.2 6.1 0.00 0.01 0.01 84 1015.2
20260906205107 59 62 6.1 10.4 0.00 0.01 0.01 84 1015.2
20260906204537 59 63 6.1 10.4 0.00 0.01 0.01 84 1015.2
20260906204037 59 64 7.8 10.4 0.00 0.01 0.01 85 1015.4
20260906203507 59 67 5.2 7.8 0.00 0.01 0.01 85 1015.5
20260906203007 59 60 6.1 7.0 0.00 0.01 0.01 86 1015.5
20260906202437 58 87 4.3 7.0 0.00 0.01 0.01 87 1015.9
20260906201907 58 103 2.6 5.2 0.00 0.01 0.01 87 1016.0
20260906201407 58 103 1.7 2.6 0.00 0.01 0.01 88 1016.1
20260906200837 58 103 2.6 2.6 0.00 0.01 0.01 89 1016.1
20260906200307 58 103 2.6 2.6 0.00 0.01 0.01 89 1016.1
20260906195737 57 103 2.6 2.6 0.01 0.01 0.01 89 1016.1
20260906195237 57 103 2.6 5.2 0.01 0.01 0.01 88 1016.3
20260906194707 58 101 2.6 5.2 0.01 0.01 0.01 89 1016.3
20260906194207 58 101 1.7 1.7 0.01 0.01 0.01 89 1016.2
20260906193637 57 101 2.6 2.6 0.01 0.01 0.01 89 1016.2
20260906193137 57 101 4.3 5.2 0.01 0.01 0.01 89 1016.3
20260906192607 58 98 5.2 6.1 0.01 0.01 0.01 89 1016.4
20260906192037 58 95 1.7 2.6 0.01 0.01 0.01 90 1016.3
20260906191507 57 103 1.7 2.6 0.01 0.01 0.01 90 1016.4
20260906190937 57 105 5.2 6.1 0.01 0.01 0.01 89 1016.5
20260906190437 57 105 2.6 6.1 0.01 0.01 0.01 89 1016.6
20260906185907 57 106 4.3 5.2 0.00 0.00 0.00 88 1016.7
20260906185407 57 106 5.2 5.2 0.00 0.00 0.00 88 1016.7
20260906184907 57 107 4.3 5.2 0.00 0.00 0.00 87 1016.8
20260906184337 57 111 2.6 5.2 0.00 0.00 0.00 86 1016.8
20260906183807 57 116 2.6 2.6 0.00 0.00 0.00 85 1016.9
20260906183307 58 117 4.3 5.2 0.00 0.00 0.00 84 1017.0
20260906182737 58 118 2.6 5.2 0.00 0.00 0.00 83 1017.1
20260906182237 58 118 4.3 6.1 0.00 0.00 0.00 82 1017.2
20260906181707 58 119 4.3 7.0 0.00 0.00 0.00 82 1017.3
20260906181207 58 119 5.2 6.1 0.00 0.00 0.00 81 1017.4
20260906180707 58 121 4.3 6.1 0.00 0.00 0.00 82 1017.4
20260906180207 58 121 4.3 6.1 0.00 0.00 0.00 82 1017.3
20260906175637 58 121 4.3 4.3 0.00 0.00 0.00 82 1017.4
20260906175107 58 122 2.6 6.1 0.00 0.00 0.00 83 1017.5
20260906174607 58 125 4.3 7.0 0.00 0.00 0.00 84 1017.5
20260906174107 58 126 1.7 6.1 0.00 0.00 0.00 84 1017.5
20260906173537 58 128 2.6 2.6 0.00 0.00 0.00 86 1017.5
20260906173037 57 128 2.6 4.3 0.00 0.00 0.00 87 1017.5
20260906172507 57 129 1.7 2.6 0.00 0.00 0.00 87 1017.5
20260906171937 57 129 2.6 4.3 0.00 0.00 0.00 88 1017.7
20260906171407 56 128 1.7 2.6 0.00 0.00 0.00 88 1017.7
20260906170838 56 128 4.3 4.3 0.00 0.00 0.00 89 1017.9
20260906170307 56 127 2.6 6.1 0.00 0.00 0.00 89 1018.0
20260906165807 56 127 4.3 6.1 0.00 0.00 0.00 90 1018.2
20260906165237 56 127 4.3 7.8 0.00 0.00 0.00 91 1018.2
20260906164707 56 125 5.2 6.1 0.00 0.00 0.00 91 1018.1
20260906164207 56 113 1.7 2.6 0.00 0.00 0.00 92 1018.0
20260906163637 55 113 2.6 2.6 0.00 0.00 0.00 92 1018.1
20260906163137 55 113 2.6 2.6 0.00 0.00 0.00 93 1018.2
20260906162607 55 113 1.7 2.6 0.00 0.00 0.00 93 1018.3
20260906162108 55 113 1.7 1.7 0.00 0.00 0.00 94 1018.2
20260906161538 55 113 4.3 5.2 0.00 0.00 0.00 94 1018.2
20260906161008 55 112 4.3 6.1 0.00 0.00 0.00 94 1018.2
20260906160437 55 107 1.7 2.6 0.00 0.00 0.00 95 1018.1
20260906155938 54 107 4.3 5.2 0.00 0.00 0.00 95 1018.0
20260906155408 54 96 4.3 6.1 0.00 0.00 0.00 95 1018.0
20260906154838 54 98 1.7 2.6 0.00 0.00 0.00 95 1018.1
20260906154338 54 98 1.7 2.6 0.00 0.00 0.00 95 1018.1
20260906153808 54 99 2.6 2.6 0.00 0.00 0.00 95 1018.1
20260906153308 54 97 2.6 5.2 0.00 0.00 0.00 96 1018.0
20260906152808 54 95 1.7 5.2 0.00 0.00 0.00 95 1018.0
20260906152237 54 89 4.3 6.1 0.00 0.00 0.00 96 1017.9
20260906151708 54 76 1.7 4.3 0.00 0.00 0.00 96 1017.8
20260906151208 54 89 2.6 4.3 0.00 0.00 0.00 96 1017.8
20260906150638 54 82 2.6 2.6 0.00 0.00 0.00 96 1017.8
20260906150138 54 82 5.2 6.1 0.00 0.00 0.00 96 1017.9
20260906145608 54 76 2.6 7.0 0.00 0.00 0.00 96 1017.9
20260906145108 53 70 7.0 7.8 0.00 0.00 0.00 96 1017.9
20260906144608 53 74 2.6 7.0 0.00 0.00 0.00 96 1018.0
20260906144038 53 75 1.7 2.6 0.00 0.00 0.00 96 1018.0
20260906143508 53 75 4.3 6.1 0.00 0.00 0.00 96 1018.0
20260906143008 53 80 2.6 4.3 0.00 0.00 0.00 96 1018.0
20260906142438 53 77 2.6 6.1 0.00 0.00 0.00 96 1018.2
20260906141938 53 75 2.6 2.6 0.00 0.00 0.00 96 1018.2
20260906141438 53 76 4.3 6.1 0.00 0.00 0.00 96 1018.3
20260906140908 53 77 2.6 4.3 0.00 0.00 0.00 96 1018.4
20260906140408 53 82 1.7 4.3 0.00 0.00 0.00 96 1018.5
20260906135908 53 78 2.6 2.6 0.00 0.00 0.00 96 1018.5
20260906135408 53 74 2.6 4.3 0.00 0.00 0.00 96 1018.5
20260906134838 53 77 2.6 6.1 0.00 0.00 0.00 96 1018.5
20260906134338 53 80 0.9 2.6 0.00 0.00 0.00 96 1018.6
20260906133808 53 80 1.7 2.6 0.00 0.00 0.00 96 1018.6
20260906133238 53 80 0.9 1.7 0.00 0.00 0.00 96 1018.5
20260906132708 53 80 0.9 1.7 0.00 0.00 0.00 96 1018.5
20260906132208 53 80 0.9 2.6 0.00 0.00 0.00 96 1018.5
20260906131638 52 80 0.9 1.7 0.00 0.00 0.00 96 1018.3
20260906131138 52 80 1.7 2.6 0.00 0.00 0.00 96 1018.2
20260906130638 52 80 2.6 4.3 0.00 0.00 0.00 96 1018.2
20260906130108 52 81 4.3 4.3 0.00 0.00 0.00 96 1018.2
20260906125538 52 84 1.7 2.6 0.00 0.00 0.00 96 1018.1
20260906125008 52 84 2.6 2.6 0.00 0.00 0.00 96 1018.1
20260906124508 53 84 0.0 0.0 0.00 0.00 0.00 96 1018.1
20260906124008 53 84 0.0 0.0 0.00 0.00 0.00 96 1018.2
20260906123508 53 84 0.0 0.0 0.00 0.00 0.00 96 1018.2
20260906123008 53 84 0.0 0.0 0.00 0.00 0.00 96 1018.3
20260906122508 53 84 0.0 0.0 0.00 0.00 0.00 96 1018.5
20260906121938 53 84 0.0 0.0 0.00 0.00 0.00 96 1018.6
20260906121408 53 84 0.0 0.9 0.00 0.00 0.00 96 1018.6
20260906120908 53 84 0.0 0.0 0.00 0.00 0.00 96 1018.8
20260906120338 53 84 0.9 0.9 0.00 0.00 0.00 96 1018.8
20260906115838 53 84 0.9 1.7 0.00 0.00 0.00 96 1019.1
20260906115308 53 84 0.9 2.6 0.00 0.00 0.00 96 1019.1
20260906114808 53 84 1.7 2.6 0.00 0.00 0.00 96 1019.1
20260906114308 53 84 1.7 2.6 0.00 0.00 0.00 96 1019.1
20260906113738 53 81 0.9 2.6 0.00 0.00 0.00 96 1019.1
20260906113238 53 80 1.7 2.6 0.00 0.00 0.00 96 1019.0
20260906112738 53 72 1.7 2.6 0.00 0.00 0.00 96 1018.8
20260906112208 53 71 1.7 2.6 0.00 0.00 0.00 96 1018.6
20260906111638 53 71 2.6 5.2 0.00 0.00 0.00 96 1018.5
20260906111138 53 71 1.7 2.6 0.00 0.00 0.00 96 1018.6
20260906110638 53 49 0.9 2.6 0.00 0.00 0.00 96 1018.8
20260906110108 53 49 1.7 2.6 0.00 0.00 0.00 96 1019.0
20260906105538 53 49 0.0 0.0 0.00 0.00 0.00 96 1019.2
20260906105038 53 49 0.9 1.7 0.00 0.00 0.00 96 1019.2
20260906104508 53 49 2.6 2.6 0.00 0.00 0.00 96 1019.1
20260906103938 53 49 1.7 2.6 0.00 0.00 0.00 96 1019.1
20260906103408 53 49 0.9 1.7 0.00 0.00 0.00 96 1019.3
20260906102838 53 49 2.6 4.3 0.00 0.00 0.00 96 1019.3
20260906102338 53 48 4.3 4.3 0.00 0.00 0.00 96 1019.3
20260906101808 53 48 1.7 2.6 0.00 0.00 0.00 96 1019.5
20260906101238 53 48 0.0 1.7 0.00 0.00 0.00 96 1019.5
20260906100708 53 48 1.7 2.6 0.00 0.00 0.00 96 1019.4
20260906100138 53 48 0.9 2.6 0.00 0.00 0.00 96 1019.6
20260906095608 54 48 1.7 2.6 0.00 0.00 0.00 96 1019.7
20260906095038 53 48 1.7 2.6 0.00 0.00 0.00 96 1019.7
20260906094538 53 48 0.9 1.7 0.00 0.00 0.00 96 1019.9
20260906094038 53 48 0.0 0.0 0.00 0.00 0.00 96 1019.8
20260906093538 53 48 0.0 0.0 0.00 0.00 0.00 96 1019.8
20260906093008 53 48 0.0 0.9 0.00 0.00 0.00 96 1019.9
20260906092508 53 48 0.9 1.7 0.00 0.00 0.00 96 1019.8
20260906092008 53 48 0.0 0.0 0.00 0.00 0.00 96 1019.9
20260906091508 53 48 0.0 0.0 0.00 0.00 0.00 96 1019.8
20260906090938 53 48 0.0 0.0 0.00 0.00 0.00 95 1019.9
20260906090408 53 48 0.0 0.0 0.00 0.00 0.00 95 1020.1
20260906085908 53 48 0.0 0.0 0.00 0.00 0.00 95 1020.2
20260906085408 53 48 0.0 0.0 0.00 0.00 0.00 95 1020.2
20260906084838 53 48 0.0 0.0 0.00 0.00 0.00 95 1020.2
20260906084308 53 48 0.0 0.0 0.00 0.00 0.00 95 1020.3
20260906083808 53 48 0.0 0.0 0.00 0.00 0.00 95 1020.2
20260906083238 53 48 0.0 0.0 0.00 0.00 0.00 95 1020.2
20260906082708 53 48 0.0 0.0 0.00 0.00 0.00 95 1020.2
20260906082208 53 48 0.0 0.0 0.00 0.00 0.00 95 1020.3
20260906081638 53 48 0.0 0.0 0.00 0.00 0.00 95 1020.3
20260906081138 53 48 0.0 0.0 0.00 0.00 0.00 95 1020.2
20260906080638 53 48 0.0 0.0 0.00 0.00 0.00 95 1020.3
20260906080108 53 48 0.9 1.7 0.00 0.00 0.00 95 1020.3
20260906075538 53 48 0.9 1.7 0.00 0.00 0.00 95 1020.4
20260906075008 53 48 0.9 1.7 0.00 0.00 0.00 95 1020.4
20260906074438 53 48 0.9 1.7 0.00 0.00 0.00 95 1020.4
20260906073938 53 48 0.0 0.9 0.00 0.00 0.00 95 1020.5
20260906073438 53 48 0.9 1.7 0.00 0.00 0.00 95 1020.5
20260906072908 53 48 0.0 0.0 0.00 0.00 0.00 95 1020.6
20260906072338 53 48 0.0 0.0 0.00 0.00 0.00 95 1020.6
20260906071838 53 48 0.0 0.0 0.00 0.00 0.00 95 1020.6
20260906071338 53 48 0.0 0.0 0.00 0.00 0.00 95 1020.5
20260906070808 53 48 0.0 0.0 0.00 0.00 0.00 95 1020.4
20260906070308 53 48 0.0 1.7 0.00 0.00 0.00 95 1020.4
20260906065738 53 48 0.0 0.9 0.00 0.00 0.00 95 1020.4
20260906065238 53 48 0.9 1.7 0.00 0.00 0.00 95 1020.3
20260906064708 53 48 0.9 1.7 0.00 0.00 0.00 95 1020.2
20260906064208 53 48 1.7 1.7 0.00 0.00 0.00 95 1020.3
20260906063638 53 48 1.7 2.6 0.00 0.00 0.00 95 1020.4
20260906063138 53 48 0.9 1.7 0.00 0.00 0.00 95 1020.4
20260906062608 53 48 0.9 1.7 0.00 0.00 0.00 95 1020.4
20260906062038 53 48 0.9 1.7 0.00 0.00 0.00 95 1020.6
20260906061538 53 48 0.9 1.7 0.00 0.00 0.00 95 1020.5
20260906061008 53 48 0.9 1.7 0.00 0.00 0.00 95 1020.4
20260906060508 53 48 1.7 2.6 0.00 0.00 0.00 95 1020.3
20260906060008 53 48 1.7 1.7 0.00 0.00 0.00 95 1020.3
20260906055438 53 48 1.7 1.7 0.00 0.00 0.00 95 1020.2
20260906054938 53 48 0.9 0.9 0.00 0.00 0.00 94 1020.3
20260906054408 53 48 1.7 2.6 0.00 0.00 0.00 94 1020.3
20260906053838 53 48 1.7 2.6 0.00 0.00 0.00 94 1020.3
20260906053338 53 48 1.7 2.6 0.00 0.00 0.00 94 1020.4
20260906052838 53 48 0.9 2.6 0.00 0.00 0.00 94 1020.5
20260906052308 53 48 0.9 1.7 0.00 0.00 0.00 94 1020.5
20260906051738 53 48 1.7 2.6 0.00 0.00 0.00 94 1020.5
20260906051208 53 48 1.7 1.7 0.00 0.00 0.00 94 1020.5
20260906050638 53 48 0.9 1.7 0.00 0.00 0.00 94 1020.4
20260906050138 53 48 1.7 2.6 0.00 0.00 0.00 94 1020.3
20260906045608 53 48 1.7 2.6 0.00 0.00 0.00 94 1020.2
20260906045108 53 48 1.7 2.6 0.00 0.00 0.00 94 1020.2
20260906044608 53 48 2.6 2.6 0.00 0.00 0.00 94 1020.3
20260906044038 53 48 1.7 2.6 0.00 0.00 0.00 94 1020.4
20260906043538 53 48 1.7 2.6 0.00 0.00 0.00 94 1020.4
20260906043008 53 48 2.6 4.3 0.00 0.00 0.00 94 1020.4
20260906042508 53 47 4.3 6.1 0.00 0.00 0.00 94 1020.3
20260906042008 53 38 4.3 7.8 0.00 0.00 0.00 94 1020.3
20260906041438 53 38 1.7 1.7 0.00 0.00 0.00 94 1020.2
20260906040938 53 38 1.7 2.6 0.00 0.00 0.00 94 1020.1
20260906040438 53 37 2.6 5.2 0.00 0.00 0.00 94 1020.1
20260906035908 53 37 2.6 4.3 0.00 0.00 0.00 94 1020.2
20260906035408 53 35 4.3 4.3 0.00 0.00 0.00 94 1020.1
20260906034908 53 29 1.7 2.6 0.00 0.00 0.00 94 1020.0
20260906034338 53 5 2.6 4.3 0.00 0.00 0.00 94 1020.0
20260906033808 53 17 2.6 2.6 0.00 0.00 0.00 94 1020.0
20260906033308 53 9 2.6 4.3 0.00 0.00 0.00 94 1020.1
20260906032808 53 0 4.3 2.6 0.00 0.00 0.00 93 1020.0
20260906032238 53 11 2.6 2.6 0.00 0.00 0.00 93 1020.1
20260906031738 53 11 1.7 2.6 0.00 0.00 0.00 93 1020.0
20260906031238 53 10 1.7 2.6 0.00 0.00 0.00 93 1020.0
20260906030708 53 6 1.7 2.6 0.00 0.00 0.00 93 1020.0
20260906030208 53 346 2.6 2.6 0.00 0.00 0.00 93 1020.0
20260906025708 53 346 1.7 2.6 0.00 0.00 0.00 93 1019.9
20260906025208 53 346 1.7 2.6 0.00 0.00 0.00 93 1019.9
20260906024708 53 346 1.7 1.7 0.00 0.00 0.00 93 1019.9
20260906024208 53 346 1.7 1.7 0.00 0.00 0.00 93 1019.8
20260906023638 53 346 0.9 1.7 0.00 0.00 0.00 93 1019.8
20260906023108 53 346 0.9 1.7 0.00 0.00 0.00 93 1019.8
20260906022538 53 347 1.7 2.6 0.00 0.00 0.00 93 1019.8
20260906022008 53 350 2.6 2.6 0.00 0.00 0.00 93 1019.8
20260906021438 53 5 2.6 2.6 0.00 0.00 0.00 93 1019.8
20260906020938 53 16 0.9 2.6 0.00 0.00 0.00 93 1019.8
20260906020408 53 16 0.9 1.7 0.00 0.00 0.00 92 1019.8
20260906015908 53 16 0.9 1.7 0.00 0.00 0.00 92 1019.8
20260906015338 53 16 1.7 2.6 0.00 0.00 0.00 92 1019.8
20260906014838 53 16 0.9 1.7 0.00 0.00 0.00 92 1019.8
20260906014308 53 16 1.7 2.6 0.00 0.00 0.00 92 1019.7
20260906013808 53 16 1.7 2.6 0.00 0.00 0.00 92 1019.7
20260906013238 53 16 0.9 1.7 0.00 0.00 0.00 91 1019.7
20260906012708 53 16 1.7 1.7 0.00 0.00 0.00 91 1019.7
20260906012208 54 16 0.9 1.7 0.00 0.00 0.00 91 1019.6
20260906011638 54 16 0.9 1.7 0.00 0.00 0.00 91 1019.6
20260906011108 54 16 0.9 1.7 0.00 0.00 0.00 91 1019.6
20260906010608 54 16 0.9 1.7 0.00 0.00 0.00 91 1019.6
20260906010108 54 16 1.7 2.6 0.00 0.00 0.00 90 1019.5
20260906005538 54 16 1.7 2.6 0.00 0.00 0.00 90 1019.5
20260906005038 54 15 2.6 2.6 0.00 0.00 0.00 90 1019.4
20260906004508 54 15 1.7 2.6 0.00 0.00 0.00 90 1019.4
20260906004008 54 20 2.6 4.3 0.00 0.00 0.00 89 1019.4
20260906003508 54 15 1.7 2.6 0.00 0.00 0.00 89 1019.3
20260906003008 55 27 1.7 2.6 0.00 0.00 0.00 89 1019.2
20260906002438 55 19 1.7 4.3 0.00 0.00 0.00 89 1019.1
20260906001938 55 5 2.6 4.3 0.00 0.00 0.00 89 1019.1
20260906001438 55 12 2.6 6.1 0.00 0.00 0.00 89 1019.0
20260906000938 55 29 4.3 4.3 0.00 0.00 0.00 89 1019.0
20260906000440 55 32 2.6 5.2 0.00 0.00 0.00 89 1018.9
20260905235938 55 34 2.6 4.3 0.00 0.00 0.00 89 1018.7
20260905235408 55 35 4.3 8.7 0.00 0.00 0.00 89 1018.7
20260905234908 55 18 2.6 2.6 0.00 0.00 0.00 89 1018.7
20260905234408 55 16 4.3 7.0 0.00 0.00 0.00 89 1018.8
20260905233908 55 28 4.3 6.1 0.00 0.00 0.00 89 1018.7
20260905233338 55 358 6.1 7.0 0.00 0.00 0.00 88 1018.7
20260905232808 55 13 4.3 7.8 0.00 0.00 0.00 88 1018.7
20260905232308 55 13 4.3 4.3 0.00 0.00 0.00 88 1018.6
20260905231738 55 19 4.3 6.1 0.00 0.00 0.00 88 1018.6
20260905231208 55 34 4.3 6.1 0.00 0.00 0.00 88 1018.6
20260905230638 55 22 4.3 6.1 0.00 0.00 0.00 88 1018.6
20260905230138 55 15 4.3 6.1 0.00 0.00 0.00 88 1018.6